TIME,DELAY(SENSOR),PRES,OXYGEN,RAWTEMP,T(OPTODE),TCPHASE,FLUOR,BETA(BETA700),BETA(BETA412),BETA(BETA440),CDOM,C(CSC),ED(ED411.90),ED(ED443.80),ED(ED489.40),ED(ED554.70),LU(LU412.20),LU(LU443.80),LU(LU489.40),LU(LU555.00),COMP,TILTX,TILTY,CHECK
1370121652,5803,821.4099731445312000,158.8007049560547000,400.3323059082031000,10.5925703048706050,39.0700607299804700,53,103,97,79,80,10211,2146956160,2147515757,2147288228,2147490816,2147084160,2146934912,2147696941,2147122944,1425,-1,9,8646
1370125248,5806,951.3800048828125000,156.6268005371093800,494.0548095703125000,7.7138199806213380,40.7967109680175800,53,136,106,84,80,10171,2146963172,2147517056,2147292937,2147508315,2147084882,2146924096,2147716827,2147123922,2585,-1,8,55914
1370128848,5807,980.6799926757812000,176.0876007080078000,495.0801086425781000,7.6820487976074220,39.3838882446289060,52,106,99,79,80,10197,2146962971,2147514724,2147296493,2147509284,2147082870,2146919424,2147708114,2147121718,489,-1,8,49575
1370132448,5807,982.2800292968750000,171.2451934814453000,495.3966979980469000,7.6722369194030760,39.7303504943847660,53,107,99,80,80,10197,2146960054,2147515556,2147294299,2147510262,2147081856,2146920969,2147716672,2147122185,277,-1,8,15465
1370136048,5806,980.5100097656250000,181.8152008056640600,495.6607055664062500,7.6640539169311520,38.9997596740722660,52,106,98,79,80,10197,2146960521,2147518162,2147295113,2147511250,2147086884,2146923154,2147715949,2147125485,524,-1,8,19147
1370139648,5805,978.9299926757812000,180.2830047607422000,499.6405944824219000,7.5406451225280760,39.1722602844238300,52,103,97,79,80,10173,2146959981,2147516141,2147295899,2147512237,2147085019,2146923428,2147714358,2147125147,3159,-1,8,9342
1370143248,5805,977.9099731445312000,176.9246063232422000,500.6632080078125000,7.5089178085327150,39.4211807250976560,52,101,96,80,80,10198,2146962048,2147513782,2147297526,2147510528,2147082413,2146925686,2147719396,2147121325,421,-1,8,27845
1370146848,5804,982.0200195312500000,185.2480926513672000,502.0461120605469000,7.4660019874572750,38.8801918029785160,53,105,97,79,79,10199,2146962304,2147515958,2147296694,2147509988,2147086299,2146924544,2147721718,2147123620,3469,0,8,46785
1370150448,5804,982.9799804687500000,188.5657958984375000,501.7027893066406000,7.4766559600830080,38.6548805236816400,53,104,97,81,80,10178,2146963254,2147516854,2147295158,2147514203,2147084534,2146924169,2147720996,2147121819,3228,-1,8,2836
1370154048,5805,986.1500244140625000,174.6580963134765600,500.7417907714844000,7.5064787864685060,39.5808105468750000,52,103,96,79,81,10175,2146956150,2147518043,2147297746,2147514587,2147084681,2146927734,2147720137,2147120420,2928,-1,8,43204
1370157648,5806,990.5499877929688000,189.5328063964843800,499.4865112304687500,7.5454249382019040,38.5538787841796900,53,105,97,78,80,10174,2146960996,2147517714,2147296182,2147509613,2147082267,2146928576,2147718573,2147125814,425,0,8,26166
1370161248,5805,991.5300292968750000,191.3661956787109400,500.1265869140625000,7.5255661010742190,38.4456596374511700,53,101,96,80,80,10175,2146961901,2147515346,2147293860,2147512960,2147081801,2146926656,2147722541,2147119917,3245,-1,9,8301
1370164848,5806,990.0399780273438000,179.5171051025390600,500.2489013671875000,7.5217700004577640,39.2355308532714840,53,103,95,79,80,10173,2146963154,2147516434,2147296292,2147511021,2147084662,2146920612,2147711277,2147122806,3200,0,8,3428
1370168448,5806,990.2000122070312000,187.3623962402343800,500.1695861816406000,7.5242328643798830,38.7077789306640600,52,114,97,79,80,10174,2146961161,2147515657,2147295149,2147510070,2147082313,2146923446,2147716635,2147121947,3405,0,8,25817
1370172048,5806,993.2800292968750000,192.7371978759765600,500.5515136718750000,7.5123839378356930,38.3646507263183600,52,105,96,81,80,10153,2146962450,2147518381,2147294418,2147512201,2147083849,2146924534,2147718454,2147119570,3021,-1,8,12235
1370175648,5805,990.2800292968750000,180.0321960449218800,501.1220092773437500,7.4946808815002440,39.2153587341308600,52,101,97,80,79,10150,2146964160,2147518738,2147296877,2147508644,2147084306,2146927341,2147712676,2147121069,3348,0,8,63694
1370179248,5805,991.2100219726562000,187.8475036621093800,500.5682067871094000,7.5118660926818850,38.6823005676269500,52,111,95,79,80,10142,2146962870,2147516370,2147294509,2147509723,2147084525,2146923885,2147714221,2147124781,3159,0,8,14279
1370182848,5805,986.0700073242188000,170.2599945068359400,502.3523864746094000,7.4564938545227050,39.9214897155761700,53,105,97,79,80,10141,2146960731,2147520758,2147297380,2147511643,2147082505,2146920301,2147716818,2147122121,3470,-1,8,54059
1370186448,5808,980.3599853515625000,180.9539947509765600,504.1004943847656000,7.4022231101989750,39.2043190002441400,53,108,97,80,79,10140,2146962724,2147517604,2147293997,2147512347,2147083611,2146922386,2147717878,2147120731,931,-1,8,21062
1370190048,5806,984.5200195312500000,188.6280059814453000,504.3385009765625000,7.3948330879211430,38.6971511840820300,51,102,96,82,81,10140,2146962212,2147517979,2147295195,2147513947,2147083867,2146921042,2147719040,2147118637,270,0,8,2934
1370193648,5806,985.4899902343750000,181.6912994384765600,504.5230102539062500,7.3891029357910160,39.1616706848144500,53,107,96,80,81,10128,2146962752,2147517366,2147296905,2147512969,2147084626,2146917677,2147720082,2147122907,570,-1,8,53579
1370197248,5806,987.9299926757812000,191.6531982421875000,504.2239074707031000,7.3983907699584960,38.4987716674804700,53,104,99,81,79,10136,2146962176,2147515574,2147296576,2147513252,2147087542,2146923702,2147716754,2147120521,3096,-1,8,28675
1370200848,5804,993.3800048828125000,194.8778991699218800,503.7945861816406000,7.4117231369018555,38.2858505249023440,52,106,97,79,80,10117,2146964644,2147517357,2147296265,2147515657,2147084278,2146920795,2147716900,2147121956,3101,0,8,30968
1370204448,5805,991.4699707031250000,191.6526947021484400,502.7319030761719000,7.4447150230407715,38.4727096557617200,53,106,96,80,80,10117,2146960667,2147517869,2147294198,2147511725,2147087762,2146920000,2147716818,2147124955,2913,-1,8,63
1370208048,5804,988.2399902343750000,189.6177978515625000,502.9999084472656000,7.4363942146301270,38.6094017028808600,52,106,98,79,80,10114,2146959506,2147516406,2147297161,2147510784,2147086537,2146924507,2147718628,2147123291,3369,-1,8,44619
1370211648,5806,985.7199707031250000,195.3787994384765600,504.1362915039062500,7.4011111259460450,38.2599182128906250,52,104,96,80,80,10111,2146962788,2147518829,2147295670,2147510665,2147087012,2146923501,2147718107,2147124132,725,0,8,30966
1370215248,5805,981.9400024414062000,194.4535064697265600,506.6636047363281000,7.3226127624511720,38.3629608154296900,53,103,98,80,80,10111,2146962944,2147514075,2147296219,2147512192,2147086016,2146923620,2147719844,2147121408,445,0,8,5450
1370218848,5808,992.5800170898438000,196.1587066650390600,503.9895019531250000,7.4056692123413090,38.2082290649414060,52,103,97,79,80,10105,2146959250,2147516845,2147294098,2147511588,2147083017,2146920713,2147720768,2147119433,1773,-1,8,18869
1370222448,5806,990.5599975585938000,196.4785003662109400,503.5390014648437500,7.4196591377258300,38.1799087524414060,52,103,99,80,81,10103,2146964489,2147520009,2147296530,2147512466,2147085897,2146923072,2147719771,2147121499,770,-1,8,44233
1370226048,5805,986.6500244140625000,186.2873992919922000,505.8241882324219000,7.3486909866333010,38.8772697448730500,52,106,99,81,79,10103,2146962633,2147517586,2147295460,2147512182,2147085266,2146925595,2147719917,2147121261,1410,0,8,23016
1370229648,5806,984.4400024414062000,192.1607971191406200,507.2080993652344000,7.3056950569152830,38.5192604064941400,52,104,98,79,80,10099,2146959277,2147520557,2147295268,2147509430,2147084178,2146923474,2147723355,2147122596,3387,-1,8,45536
1370233248,5803,986.1900024414062000,199.4358978271484400,507.1184997558594000,7.3084769248962400,38.0585289001464840,53,105,97,80,81,10099,2146961444,2147519122,2147293632,2147514121,2147084361,2146919058,2147723099,2147121124,3554,-1,8,58669
1370236848,5810,988.5000000000000000,199.2906036376953000,507.0148010253906000,7.3117017745971680,38.0657691955566400,52,104,97,78,80,10098,2146960850,2147515867,2147296804,2147510756,2147087990,2146922578,2147716105,2147122989,68,0,8,4515
1370240448,5805,983.1900024414062000,200.0783996582031200,507.4424133300781000,7.2984142303466800,38.0238494873046900,52,105,95,81,81,9944,2146962843,2147517476,2147295177,2147511488,2147085046,2146923986,2147718345,2147123382,518,-1,8,13088
1370244048,5809,991.7899780273438000,198.6667938232422000,505.5445861816406000,7.3573732376098630,38.0788383483886700,52,107,97,158,80,10017,2146962788,2147522276,2147296594,2147510180,2147084690,2146921920,2147717888,2147124992,49,-1,8,55425
1370247648,5806,1001.2399902343750000,191.2073974609375000,502.3774108886719000,7.4557189941406250,38.4957389831543000,52,102,97,80,80,9997,2146961243,2147519286,2147297664,2147511579,2147083227,2146922797,2147715922,2147121910,1459,0,8,52448
1370251248,5803,995.6400146484375000,195.8000030517578000,501.9913940429687500,7.4677000045776370,38.1952705383300800,53,104,99,80,80,9997,2146962944,2147518198,2147296347,2147511698,2147087360,2146923456,2147719424,2147125787,3462,-1,8,28515
1370254848,5802,991.8400268554688000,192.3572998046875000,504.0411071777344000,7.4040670394897460,38.4512214660644500,52,103,96,82,79,9989,2146958820,2147516562,2147294820,2147510848,2147085440,2146919689,2147720630,2147123254,1327,-1,8,55060
1370258448,5804,990.0100097656250000,197.4297027587890600,505.5997924804687500,7.3556590080261230,38.1565513610839840,52,105,148,80,80,9997,2146956763,2147518720,2147294445,2147511296,2147083245,2146921910,2147720018,2147122587,1153,-1,8,45169
1370262048,5805,990.4899902343750000,195.6125946044922000,504.3729858398437500,7.3937602043151855,38.2486305236816400,53,107,97,79,79,9997,2146960146,2147520886,2147298669,2147514176,2147081536,2146925677,2147716196,2147125970,1485,-1,9,38136
1370265648,5806,991.3699951171875000,197.1170043945312500,505.9208068847656000,7.3456878662109375,38.1813888549804700,53,343,98,81,79,9996,2146961179,2147516388,2147295515,2147512384,2147087707,2146920429,2147718299,2147123629,1629,-1,8,43941
1370269248,5800,985.8400268554688000,200.5368957519531200,507.5661926269531000,7.2945671081542970,37.9983596801757800,52,106,96,82,80,9991,2146960365,2147519040,2147292534,2147511314,2147088118,2146921353,2147714980,2147123602,1966,-1,8,23532
1370269556,5804,841.0000000000000000,201.9806976318359400,507.4836120605469000,7.2971339225769040,37.9077415466308600,52,105,98,79,80,10143,2146959232,2147517568,2147295405,2147512502,2147085357,2146919241,2147717284,2147126354,2302,-1,8,34365
